Regional Weather Roundup
Issued by NWS New Orleans/Baton Rouge, LA

Home | Current Version | Previous Version | Text Only | Print | Product List | Glossary On
Versions: 1 2 3 4 5 6 7 8 9 10 11 12 13 14 15 16 17 18 19 20 21 22 23 24 25 26 27 28 29 30 31 32 33 34 35 36 37 38 39 40 41 42 43 44 45 46 47 48 49 50
000
ASUS44 KLIX 230306
RWRLIX
NEW ORLEANS REGIONAL WEATHER ROUNDUP
NATIONAL WEATHER SERVICE NEW ORLEANS LA
1000 PM CDT TUE MAY 22 2018

NOTE: "FAIR" INDICATES FEW OR NO CLOUDS BELOW 12,000 FEET WITH NO
      SIGNIFICANT WEATHER AND/OR OBSTRUCTIONS TO VISIBILITY.
      SKY/WX - SKY CONDITION AND SIGNIFICANT WEATHER.
      TMP - AIR TEMPERATURE.     DP    - DEWPOINT TEMPERATURE.
      RH  - RELATIVE HUMIDITY.   PRES  - PRESSURE.
      HI  - HEAT INDEX.          WCI   - WIND CHILL INDEX.

*  THESE STATIONS ARE NOT NWS OR FAA STATIONS AND ARE NOT UNDER
   NWS QUALITY CONTROL.

LAZ038-040-048-061>063-065>067-069-230400-
SOUTHEAST LOUISIANA

CITY           SKY/WX    TMP DP  RH WIND       PRES   REMARKS
N.O. INTL ARPT FAIR      82  73  74 SE6       30.01R
N.O. LAKEFRONT FAIR      81  71  71 SE6       30.02R
N.O. DOWNTOWN* FAIR      82  73  74 S7        30.02R
RESERVE*         N/A     79  70  73 SE6       30.01R
SLIDELL        FAIR      76  70  82 NE3       30.02R
BATON ROUGE    TSTM      73  69  87 SW15      30.02R
BOOTHVILLE     FAIR      80  74  81 SE5       30.02R
BELLE CHASSE   FAIR      75  74  96 CALM      30.01R
BOGALUSA*      FAIR      76  69  79 CALM      30.03R
GALLIANO*      FAIR      76  69  78 CALM      30.01R
NEW ROADS*     MOCLDY    75  66  72 CALM      30.02R
GONZALES*      FAIR      75  70  84 NW3       30.01R
HAMMOND*       FAIR      77  70  78 CALM      30.02R
HOUMA*         FAIR      76  70  80 SE3       30.01R
PORT FOURCHON* PTCLDY    81  72  74 SE9       30.01R

$$

MSZ070-080>082-230400-
SOUTHERN MISSISSIPPI

CITY           SKY/WX    TMP DP  RH WIND       PRES   REMARKS
MCCOMB         FAIR      73  69  87 E3        30.04R
GULFPORT       FAIR      78  71  79 CALM      30.02R
BILOXI         MOCLDY    77  71  83 NE5       30.02R
PASCAGOULA     FAIR      75  71  87 N6        30.04R

$$

COASTAL OBSERVATIONS
LAKE AND NEARSHORE STATIONS

STATION/POSITION TIME  SKY/WX   TEMP    WIND        PRES    WAVE
                                AIR SEA DIR/SP/G            HT/PER
                 (UTC)          (F)     (DEG/KT/KT) (MB)    (FT/S)
WAVELAND YACHT   0248            79 84   30/  5/  7 1016.6
GRAND ISLE       0248            81 85  160/  4/  8 1016.2
SOUTHWEST PASS   0248            80 76  140/  9/ 12 1016.9
NEW CANAL        0248            81 85  150/  2/  4 1016.2
SHELL BEACH      0248            81 87  130/  6/  6 1016.7

OFFSHORE STATIONS

STATION/POSITION TIME  SKY/WX   TEMP    WIND        PRES    WAVE
                                AIR SEA DIR/SP/G            HT/PER
                 (UTC)          (F)     (DEG/KT/KT) (MB)    (FT/S)
64 S DAUPHIN ISL 0250               83  130/  8/ 12 1016.8    2/ 6

$$




USA.gov is the U.S. government's official web portal to all federal, state and local government web resources and services.